map of PVK home
Great Circle Mapper logo
PVK - Airport
Location
City:  Preveza/Lefkada, Greece
Near (Alt.):Lefkas
Name:Aktion National
ICAO / IATA:LGPZ / PVK

Details
Type:Airport (Aerodrome, Airfield)
Use:Military
Latitude:3855'32"N (38.925467)
Longitude:2045'55"E (20.765311)
Datum:WGS 1984
Elevation:11 ft (3 m)
Variation:3.93E (WMM2015 magnetic declination)
0.10 annual change
Runways:1
Longest:9419 × 148 ft (2871 × 45 m), paved

Time
Time Zone:UTC+2 (DST+3)
Local Time:

Weather
METAR:LGPZ 042250Z 00000KT 9999 FEW020 SCT080 25/19 Q1010 BLU

Related Locations
Nearby:
Farthest:CHT: 11486 mi / 18484 km
Waitangi [Tuuta], Chatham Islands, NZ

Find:

   beyond  
but within

Other Information
Maps:
NOTAMs:
Links:
Sources:

  
flag of Greece   

Sectional Chart

Flight Planning
at skyvector.com

Satellite Image

Google Maps Satellite view

 

Copyright © 2004-2015 Karl L. Swartz. All rights reserved.
The Great Circle Mapper name and logo are trademarks of the Great Circle Mapper.
All other trademarks mentioned herein belong to their respective owners.
Please see credits for attibutions and further copyright information.

  Follow gcmap on Facebook Follow gcmap on Twitter Follow gcmap on Google+

hCard Microformat

Geo Microformat